CW8284 Weather Reports


time (UTC)temp
C
wind
direction
speed
KPH
gust
KPH
rain 1hr
cm
rain 24hr
cm
rain mn
cm
humidity
%
barometer
mb
20260507023213 18 247 3.2 4.8 0.00 0.00 0.00 1014.7
20260507023114 18 202 3.2 6.4 0.00 0.00 0.00 1014.7
20260507022113 18 202 8.0 9.7 0.00 0.00 0.00 1014.4
20260507021413 18 202 8.0 12.9 0.00 0.00 0.00 1014.6
20260507021313 18 225 8.0 14.5 0.00 0.00 0.00 1014.5
20260507020013 19 225 8.0 11.3 0.00 0.00 0.00 1014.1
20260507015913 19 225 6.4 9.7 0.00 0.00 0.00 1014.3
20260507014613 20 157 3.2 6.4 0.00 0.00 0.00 1014.1
20260507014214 19 225 6.4 8.0 0.00 0.00 0.00 1014.1
20260507013513 20 225 8.0 11.3 0.00 0.00 0.00 1014.0
20260507013413 20 225 8.0 11.3 0.00 0.00 0.00 1014.1
20260507013013 20 202 8.0 12.9 0.00 0.00 0.00 1014.1
20260507012913 20 180 3.2 4.8 0.00 0.00 0.00 1014.1
20260507012813 20 202 3.2 8.0 0.00 0.00 0.00 1014.2
20260507012713 20 225 6.4 9.7 0.00 0.00 0.00 1014.0
20260507011413 20 157 6.4 8.0 0.00 0.00 0.00 1013.9
20260507010113 20 202 6.4 14.5 0.00 0.00 0.00 1013.9
20260507010014 20 225 6.4 11.3 0.00 0.00 0.00 1013.7
20260507005913 20 157 1.6 4.8 0.00 0.00 0.00 1013.8
20260507005513 20 225 8.0 12.9 0.00 0.00 0.00 1013.8
20260507004514 21 225 8.0 14.5 0.00 0.00 0.00 1013.9
20260507004113 21 225 6.4 8.0 0.00 0.00 0.00 1013.7
20260507003713 21 225 9.7 11.3 0.00 0.00 0.00 1013.8
20260507002713 21 225 9.7 14.5 0.00 0.00 0.00 1013.9
20260507002613 21 202 11.3 16.1 0.00 0.00 0.00 1013.8
20260507002513 21 225 4.8 8.0 0.00 0.00 0.00 1014.0
20260507002413 21 225 6.4 14.5 0.00 0.00 0.00 1014.0
20260507002313 21 180 8.0 12.9 0.00 0.00 0.00 1013.8
20260507001913 21 157 4.8 9.7 0.00 0.00 0.00 1013.9
20260507001513 21 247 9.7 14.5 0.00 0.00 0.00 1013.8
20260507000213 22 180 4.8 8.0 0.00 0.00 0.00 1013.8
20260507000113 22 202 8.0 12.9 0.00 0.00 0.00 1013.8
20260507000013 22 225 8.0 16.1 0.00 0.00 0.00 1013.8
20260506235913 22 202 6.4 12.9 0.00 0.00 0.00 1013.6
20260506235813 22 225 3.2 4.8 0.00 0.00 0.00 1013.8
20260506235713 22 202 4.8 9.7 0.00 0.00 0.00 1013.7
20260506235613 22 180 9.7 16.1 0.00 0.00 0.00 1013.7
20260506234613 22 202 12.9 17.7 0.00 0.00 0.00 1013.7
20260506234513 22 247 12.9 19.3 0.00 0.00 0.00 1013.6
20260506234413 23 202 11.3 17.7 0.00 0.00 0.00 1013.6
20260506234313 23 225 8.0 11.3 0.00 0.00 0.00 1013.8
20260506234213 23 225 8.0 11.3 0.00 0.00 0.00 1013.7
20260506233813 23 202 8.0 14.5 0.00 0.00 0.00 1013.6
20260506233113 23 202 8.0 16.1 0.00 0.00 0.00 1013.6
20260506232713 22 225 9.7 12.9 0.00 0.00 0.00 1013.6
20260506232314 23 225 8.0 12.9 0.00 0.00 0.00 1013.6
20260506231913 23 135 6.4 14.5 0.00 0.00 0.00 1013.7
20260506231813 23 157 12.9 19.3 0.00 0.00 0.00 1013.8
20260506231713 23 180 9.7 17.7 0.00 0.00 0.00 1013.8
20260506230413 24 225 9.7 11.3 0.00 0.00 0.00 1013.6
20260506230313 25 225 14.5 17.7 0.00 0.00 0.00 1013.4
20260506225013 26 180 6.4 11.3 0.00 0.00 0.00 1013.8
20260506224913 26 202 6.4 12.9 0.00 0.00 0.00 1013.6
20260506224213 26 225 9.7 14.5 0.00 0.00 0.00 1013.8
20260506223513 26 270 8.0 14.5 0.00 0.00 0.00 1013.6
20260506223414 26 225 4.8 8.0 0.00 0.00 0.00 1013.7
20260506223313 26 112 4.8 12.9 0.00 0.00 0.00 1013.6
20260506223213 26 180 4.8 6.4 0.00 0.00 0.00 1013.6
20260506222813 26 202 6.4 14.5 0.00 0.00 0.00 1013.9
20260506222413 26 157 6.4 9.7 0.00 0.00 0.00 1014.0
20260506221713 27 180 4.8 8.0 0.00 0.00 0.00 1013.8
20260506221613 27 202 6.4 11.3 0.00 0.00 0.00 1013.8
20260506221513 27 202 8.0 9.7 0.00 0.00 0.00 1014.0
20260506221413 27 315 3.2 8.0 0.00 0.00 0.00 1013.8
20260506221313 27 112 3.2 4.8 0.00 0.00 0.00 1013.9
20260506221213 27 225 3.2 6.4 0.00 0.00 0.00 1014.2
20260506215913 27 157 3.2 3.2 0.00 0.00 0.00 1014.1
20260506215813 26 135 3.2 6.4 0.00 0.00 0.00 1014.1
20260506215713 26 270 3.2 6.4 0.00 0.00 0.00 1014.1
20260506215013 26 270 3.2 4.8 0.00 0.00 0.00 1014.1
20260506214913 26 292 4.8 6.4 0.00 0.00 0.00 1014.0
20260506214514 26 180 4.8 8.0 0.00 0.00 0.00 1014.2
20260506214113 26 135 1.6 3.2 0.00 0.00 0.00 1014.3
20260506213113 27 22 4.8 6.4 0.00 0.00 0.00 1014.7
20260506213013 27 337 3.2 8.0 0.00 0.00 0.00 1014.7
20260506212914 27 337 1.6 3.2 0.00 0.00 0.00 1014.6
20260506212213 26 180 3.2 4.8 0.00 0.00 0.00 1014.7
20260506211213 26 225 6.4 8.0 0.00 0.00 0.00 1014.7
20260506211113 26 225 3.2 9.7 0.00 0.00 0.00 1014.8
20260506210714 25 67 3.2 4.8 0.00 0.00 0.00 1014.8
20260506210613 25 45 3.2 4.8 0.00 0.00 0.00 1014.8
20260506210513 25 45 4.8 6.4 0.00 0.00 0.00 1014.8
20260506205813 26 225 6.4 8.0 0.00 0.00 0.00 1014.9
20260506205713 26 225 3.2 4.8 0.00 0.00 0.00 1015.1
20260506204713 25 112 3.2 6.4 0.00 0.00 0.00 1015.3
20260506204313 25 315 4.8 8.0 0.00 0.00 0.00 1015.4
20260506203913 24 270 3.2 6.4 0.00 0.00 0.00 1015.4
20260506203813 24 202 3.2 6.4 0.00 0.00 0.00 1015.3
20260506203713 24 337 4.8 6.4 0.00 0.00 0.00 1015.4
20260506203613 24 270 6.4 11.3 0.00 0.00 0.00 1015.5
20260506203213 25 225 9.7 14.5 0.00 0.00 0.00 1015.5
20260506203113 25 225 1.6 4.8 0.00 0.00 0.00 1015.3
20260506202713 24 225 1.6 3.2 0.00 0.00 0.00 1015.4
20260506202613 24 180 1.6 3.2 0.00 0.00 0.00 1015.4
20260506202213 23 0 1.6 3.2 0.00 0.00 0.00 1015.7
20260506201813 23 202 6.4 9.7 0.00 0.00 0.00 1015.7
20260506201413 23 225 8.0 14.5 0.00 0.00 0.00 1015.6
20260506201013 23 225 8.0 12.9 0.00 0.00 0.00 1015.6
20260506195713 23 337 8.0 9.7 0.00 0.00 0.00 1015.8
20260506195613 23 315 3.2 4.8 0.00 0.00 0.00 1015.7
20260506195214 23 292 1.6 3.2 0.00 0.00 0.00 1015.8
20260506195113 23 112 4.8 8.0 0.00 0.00 0.00 1015.7
20260506194713 23 0 4.8 4.8 0.00 0.00 0.00 1015.9
20260506194313 23 180 3.2 4.8 0.00 0.00 0.00 1015.9
20260506194213 23 225 3.2 4.8 0.00 0.00 0.00 1015.9
20260506193813 22 180 3.2 4.8 0.00 0.00 0.00 1016.0
20260506193413 22 0 3.2 4.8 0.00 0.00 0.00 1016.1
20260506193313 22 292 6.4 8.0 0.00 0.00 0.00 1016.2
20260506193213 21 225 3.2 8.0 0.00 0.00 0.00 1016.1
20260506192513 22 225 4.8 9.7 0.00 0.00 0.00 1016.1
20260506191813 23 225 4.8 9.7 0.00 0.00 0.00 1016.3
20260506191713 23 202 1.6 6.4 0.00 0.00 0.00 1016.2
20260506190413 21 112 3.2 6.4 0.00 0.00 0.00 1016.3
20260506190313 21 135 1.6 3.2 0.00 0.00 0.00 1016.6
20260506185913 21 247 1.6 1.6 0.00 0.00 0.00 1016.6
20260506184914 21 315 1.6 3.2 0.00 0.00 0.00 1016.5
20260506184513 21 0 1.6 3.2 0.00 0.00 0.00 1016.6
20260506184413 21 112 1.6 3.2 0.00 0.00 0.00 1016.6
20260506183713 21 202 1.6 3.2 0.00 0.00 0.00 1016.7
20260506183613 21 135 1.6 4.8 0.00 0.00 0.00 1016.7
20260506183513 21 157 1.6 3.2 0.00 0.00 0.00 1016.8
20260506183413 21 157 1.6 3.2 0.00 0.00 0.00 1016.8
20260506183313 21 157 3.2 3.2 0.00 0.00 0.00 1016.7
20260506183213 21 135 1.6 3.2 0.00 0.00 0.00 1016.8
20260506183114 21 180 3.2 4.8 0.00 0.00 0.00 1016.8
20260506182713 20 180 4.8 9.7 0.00 0.00 0.00 1016.8
20260506182313 20 225 3.2 4.8 0.00 0.00 0.00 1016.9
20260506181313 20 315 4.8 4.8 0.00 0.00 0.00 1017.0
20260506181213 20 337 3.2 6.4 0.00 0.00 0.00 1016.8
20260506174713 19 202 3.2 4.8 0.00 0.00 0.00 1017.0
20260506174013 20 225 1.6 3.2 0.00 0.00 0.00 1017.0
20260506173313 20 157 1.6 3.2 0.00 0.00 0.00 1017.0
20260506172313 18 202 1.6 3.2 0.00 0.00 0.00 1017.1
20260506172213 18 292 1.6 3.2 0.00 0.00 0.00 1017.1
20260506172113 18 292 3.2 4.8 0.00 0.00 0.00 1017.0
20260506170813 17 202 1.6 3.2 0.00 0.00 0.00 1016.8
20260506170413 16 180 1.6 4.8 0.00 0.00 0.00 1016.9
20260506165713 16 225 4.8 6.4 0.00 0.00 0.00 1016.7
20260506165313 17 180 3.2 6.4 0.00 0.00 0.00 1017.0
20260506164013 17 225 1.6 3.2 0.00 0.00 0.00 1016.9
20260506163913 17 202 0.0 3.2 0.00 0.00 0.00 1017.0
20260506162013 17 180 3.2 3.2 0.00 0.00 0.00 1017.0
20260506161613 17 247 3.2 4.8 0.00 0.00 0.00 1017.1
20260506161213 17 112 1.6 3.2 0.00 0.00 0.00 1017.0
20260506161113 17 180 1.6 4.8 0.00 0.00 0.00 1016.9
20260506161014 17 157 0.0 1.6 0.00 0.00 0.00 1016.6
20260506160613 17 180 1.6 1.6 0.00 0.00 0.00 1016.9
20260506155913 18 202 0.0 1.6 0.00 0.00 0.00 1016.9
20260506155213 17 0 1.6 3.2 0.00 0.00 0.00 1016.8
20260506155113 17 292 1.6 3.2 0.00 0.00 0.00 1016.9
20260506155013 17 337 1.6 3.2 0.00 0.00 0.00 1017.0
20260506154614 17 67 3.2 4.8 0.00 0.00 0.00 1017.0
20260506154213 17 112 1.6 4.8 0.00 0.00 0.00 1017.1
20260506153815 17 135 1.6 3.2 0.00 0.00 0.00 1017.1
20260506153713 17 135 0.0 1.6 0.00 0.00 0.00 1017.0
20260506153314 17 45 1.6 3.2 0.00 0.00 0.00 1017.1
20260506153213 17 202 0.0 3.2 0.00 0.00 0.00 1017.0
20260506151913 16 90 3.2 4.8 0.00 0.00 0.00 1017.0
20260506151513 16 135 1.6 3.2 0.00 0.00 0.00 1017.1
20260506151414 16 135 1.6 1.6 0.00 0.00 0.00 1017.0
20260506150414 16 90 0.0 0.0 0.00 0.00 0.00 1017.0
20260506150313 16 90 0.0 1.6 0.00 0.00 0.00 1017.0
20260506150215 16 90 1.6 3.2 0.00 0.00 0.00 1017.0
20260506145513 16 90 1.6 1.6 0.00 0.00 0.00 1017.0
20260506144815 15 112 1.6 3.2 0.00 0.00 0.00 1016.9
20260506144113 15 45 0.0 1.6 0.00 0.00 0.00 1016.9
20260506142513 13 45 0.0 0.0 0.00 0.00 0.00 1017.0
20260506142113 13 45 0.0 1.6 0.00 0.00 0.00 1016.8
20260506142013 12 45 0.0 1.6 0.00 0.00 0.00 1016.8
20260506141913 12 292 0.0 0.0 0.00 0.00 0.00 1016.8
20260506141813 12 315 0.0 0.0 0.00 0.00 0.00 1016.8
20260506141413 11 0 0.0 0.0 0.00 0.00 0.00 1017.2
20260506140414 9 22 0.0 0.0 0.00 0.00 0.00 1016.9
20260506135714 8 22 0.0 0.0 0.00 0.00 0.00 1016.9
20260506135313 8 22 0.0 0.0 0.00 0.00 0.00 1016.8
20260506134613 7 22 0.0 0.0 0.00 0.00 0.00 1016.8
20260506133913 7 22 0.0 0.0 0.00 0.00 0.00 1016.9
20260506132913 7 22 0.0 0.0 0.00 0.00 0.00 1016.6
20260506132514 7 22 0.0 0.0 0.00 0.00 0.00 1016.7
20260506132113 7 22 0.0 0.0 0.00 0.00 0.00 1016.5
20260506131413 7 22 0.0 0.0 0.00 0.00 0.00 1016.5
20260506131013 7 22 0.0 0.0 0.00 0.00 0.00 1016.6
20260506130613 7 22 0.0 1.6 0.00 0.00 0.00 1016.5
20260506130213 6 22 0.0 1.6 0.00 0.00 0.00 1016.4
20260506125813 6 22 0.0 1.6 0.00 0.00 0.00 1016.5
20260506124513 6 22 0.0 0.0 0.00 0.00 0.00 1016.6
20260506124413 6 22 0.0 0.0 0.00 0.00 0.00 1016.5
20260506124313 6 22 0.0 0.0 0.00 0.00 0.00 1016.5
20260506123913 6 22 0.0 0.0 0.00 0.00 0.00 1016.6
20260506123813 6 22 0.0 0.0 0.00 0.00 0.00 1016.4
20260506123414 6 22 0.0 0.0 0.00 0.00 0.00 1016.2
20260506123313 6 22 0.0 0.0 0.00 0.00 0.00 1016.4
20260506122613 6 22 0.0 0.0 0.00 0.00 0.00 1016.1
20260506122214 6 22 0.0 0.0 0.00 0.00 0.00 1016.2
20260506121213 6 22 0.0 0.0 0.00 0.00 0.00 1016.1
20260506120813 6 22 0.0 0.0 0.00 0.00 0.00 1016.1
20260506120414 6 22 0.0 0.0 0.00 0.00 0.00 1016.0
20260506120313 6 22 0.0 0.0 0.00 0.00 0.00 1016.0
20260506114713 6 22 1.6 1.6 0.00 0.00 0.00 1016.0
20260506113714 6 337 0.0 0.0 0.00 0.00 0.00 1016.2
20260506113613 6 337 0.0 0.0 0.00 0.00 0.00 1016.0
20260506113513 6 337 0.0 0.0 0.00 0.00 0.00 1016.1
20260506113413 6 337 0.0 0.0 0.00 0.00 0.00 1015.9
20260506113013 6 337 0.0 0.0 0.00 0.00 0.00 1016.1
20260506112913 6 337 0.0 1.6 0.00 0.00 0.00 1015.7
20260506112813 6 337 0.0 0.0 0.00 0.00 0.00 1016.1
20260506112713 6 292 0.0 1.6 0.00 0.00 0.00 1015.7
20260506111713 6 337 0.0 0.0 0.00 0.00 0.00 1015.9
20260506111614 6 337 0.0 0.0 0.00 0.00 0.00 1016.0
20260506110313 7 315 0.0 0.0 0.00 0.00 0.00 1015.8
20260506110213 6 315 0.0 0.0 0.00 0.00 0.00 1015.7
20260506110114 6 315 0.0 0.0 0.00 0.00 0.00 1015.7
20260506110013 6 315 0.0 0.0 0.00 0.00 0.00 1015.7
20260506105914 6 315 0.0 0.0 0.00 0.00 0.00 1016.0
20260506105813 6 315 0.0 0.0 0.00 0.00 0.00 1015.8
20260506105713 6 292 0.0 0.0 0.00 0.00 0.00 1015.7
20260506105613 6 45 0.0 0.0 0.00 0.00 0.00 1015.8
20260506105513 6 45 0.0 0.0 0.00 0.00 0.00 1015.8
20260506105113 7 45 0.0 0.0 0.00 0.00 0.00 1015.9
20260506105013 7 45 0.0 0.0 0.00 0.00 0.00 1015.8
20260506104914 7 45 0.0 0.0 0.00 0.00 0.00 1015.9
20260506103313 7 45 1.6 3.2 0.00 0.00 0.00 1015.9
20260506102913 7 45 0.0 0.0 0.00 0.00 0.00 1015.8
20260506102813 7 45 0.0 0.0 0.00 0.00 0.00 1016.0
20260506102413 7 0 0.0 0.0 0.00 0.00 0.00 1016.0
20260506102314 7 0 0.0 0.0 0.00 0.00 0.00 1015.9
20260506102213 7 0 0.0 0.0 0.00 0.00 0.00 1015.9
20260506101813 7 22 0.0 0.0 0.00 0.00 0.00 1015.9
20260506101713 7 22 0.0 0.0 0.00 0.00 0.00 1016.0
20260506101013 7 0 0.0 0.0 0.00 0.00 0.00 1015.7
20260506100613 7 0 0.0 0.0 0.00 0.00 0.00 1015.9
20260506100513 7 0 0.0 1.6 0.00 0.00 0.00 1015.9
20260506095813 8 0 0.0 0.0 0.00 0.00 0.00 1015.9
20260506095713 8 0 0.0 1.6 0.00 0.00 0.00 1016.0
20260506094113 8 292 1.6 3.2 0.00 0.00 0.00 1015.8
20260506093713 8 337 1.6 3.2 0.00 0.00 0.00 1015.8
20260506093313 8 22 1.6 3.2 0.00 0.00 0.00 1015.8
20260506093213 8 22 1.6 1.6 0.00 0.00 0.00 1015.8
20260506093113 8 22 1.6 3.2 0.00 0.00 0.00 1015.7
20260506092413 8 22 1.6 3.2 0.00 0.00 0.00 1015.8
20260506092313 8 22 1.6 1.6 0.00 0.00 0.00 1015.8
20260506091914 7 22 1.6 1.6 0.00 0.00 0.00 1015.8
20260506091513 7 22 0.0 1.6 0.00 0.00 0.00 1015.8
20260506091413 7 0 0.0 0.0 0.00 0.00 0.00 1016.0
20260506091313 8 0 0.0 0.0 0.00 0.00 0.00 1015.9
20260506091214 8 0 0.0 0.0 0.00 0.00 0.00 1015.9
20260506091113 8 22 0.0 0.0 0.00 0.00 0.00 1015.9
20260506090713 8 22 0.0 0.0 0.00 0.00 0.00 1015.9
20260506090313 8 22 0.0 0.0 0.00 0.00 0.00 1016.1
20260506084413 8 45 1.6 1.6 0.00 0.00 0.00 1016.2
20260506084013 8 45 1.6 3.2 0.00 0.00 0.00 1016.2
20260506082113 8 45 1.6 1.6 0.00 0.00 0.00 1016.4
20260506081413 8 22 0.0 1.6 0.00 0.00 0.00 1016.3
20260506081313 8 22 0.0 1.6 0.00 0.00 0.00 1016.3
20260506081213 8 22 0.0 1.6 0.00 0.00 0.00 1016.3
20260506081113 8 22 1.6 1.6 0.00 0.00 0.00 1016.2
20260506081013 8 22 1.6 3.2 0.00 0.00 0.00 1016.4
20260506080913 8 0 1.6 1.6 0.00 0.00 0.00 1016.3
20260506073313 9 22 0.0 1.6 0.00 0.00 0.00 1016.4
20260506072313 9 337 1.6 3.2 0.00 0.00 0.00 1016.4
20260506070713 9 0 0.0 0.0 0.00 0.00 0.00 1016.3
20260506070313 9 0 0.0 0.0 0.00 0.00 0.00 1016.2
20260506062513 11 0 0.0 1.6 0.00 0.00 0.00 1015.8
20260506061813 11 0 0.0 1.6 0.00 0.00 0.00 1015.6
20260506060513 11 22 0.0 1.6 0.00 0.00 0.00 1015.7
20260506060413 11 0 1.6 1.6 0.00 0.00 0.00 1015.7
20260506050713 11 22 0.0 0.0 0.00 0.00 0.00 1015.3
20260506050613 11 22 0.0 0.0 0.00 0.00 0.00 1015.3
20260506050513 11 22 0.0 0.0 0.00 0.00 0.00 1015.3
20260506050113 11 22 0.0 0.0 0.00 0.00 0.00 1015.2
20260506045113 11 0 1.6 3.2 0.00 0.00 0.00 1015.2
20260506044713 11 337 1.6 1.6 0.00 0.00 0.00 1015.0
20260506044013 11 45 1.6 3.2 0.00 0.00 0.00 1015.0
20260506043613 11 45 0.0 1.6 0.00 0.00 0.00 1015.2
20260506042313 10 45 1.6 1.6 0.00 0.00 0.00 1014.7
20260506041313 10 0 0.0 0.0 0.00 0.00 0.00 1014.7
20260506041213 10 0 0.0 0.0 0.00 0.00 0.00 1014.5
20260506041113 11 0 0.0 0.0 0.00 0.00 0.00 1014.7
20260506041013 11 0 0.0 0.0 0.00 0.00 0.00 1014.4
20260506040613 11 0 0.0 0.0 0.00 0.00 0.00 1014.4
20260506040213 11 0 0.0 0.0 0.00 0.00 0.00 1014.5
20260506035813 11 0 0.0 0.0 0.00 0.00 0.00 1014.3
20260506035713 11 0 0.0 0.0 0.00 0.00 0.00 1014.2
20260506035613 11 0 0.0 0.0 0.00 0.00 0.00 1014.1
20260506035513 11 0 0.0 0.0 0.00 0.00 0.00 1014.2
20260506035416 11 0 0.0 0.0 0.00 0.00 0.00 1014.1
20260506034213 11 0 0.0 0.0 0.00 0.00 0.00 1014.0
20260506033814 12 0 0.0 0.0 0.00 0.00 0.00 1014.1
20260506033213 12 0 0.0 0.0 0.00 0.00 0.00 1013.8
20260506032813 12 0 0.0 0.0 0.00 0.00 0.00 1013.9
20260506032413 12 0 1.6 1.6 0.00 0.00 0.00 1014.0
20260506032013 12 0 1.6 1.6 0.00 0.00 0.00 1013.8
20260506031913 12 337 0.0 0.0 0.00 0.00 0.00 1013.7
20260506031814 12 337 0.0 0.0 0.00 0.00 0.00 1013.7
20260506031714 12 337 0.0 0.0 0.00 0.00 0.00 1013.7
20260506031313 12 337 0.0 0.0 0.00 0.00 0.00 1013.6
20260506030914 12 315 0.0 0.0 0.00 0.00 0.00 1013.6
20260506030213 12 315 0.0 0.0 0.00 0.00 0.00 1013.6
20260506030113 12 315 0.0 0.0 0.00 0.00 0.00 1013.6
20260506030013 12 315 0.0 0.0 0.00 0.00 0.00 1013.6
20260506025913 12 270 0.0 0.0 0.00 0.00 0.00 1013.6
20260506025513 13 270 0.0 0.0 0.00 0.00 0.00 1013.5
20260506025413 13 270 0.0 0.0 0.00 0.00 0.00 1013.4
20260506025313 13 270 0.0 0.0 0.00 0.00 0.00 1013.2
20260506025213 13 270 0.0 0.0 0.00 0.00 0.00 1013.4
20260506025113 13 270 0.0 0.0 0.00 0.00 0.00 1013.3
20260506025013 13 270 0.0 0.0 0.00 0.00 0.00 1013.2
20260506024913 13 270 0.0 0.0 0.00 0.00 0.00 1013.4
20260506024214 14 270 0.0 1.6 0.00 0.00 0.00 1013.2
20260506023813 14 225 1.6 3.2 0.00 0.00 0.00 1013.3